Los Alamitos, CA

8:31 PM PDT on March 24, 2017 (GMT -0700)
Los Alamitos Army Air Field

Weather History for KSLI - January, 2013

Change the Weather History Date:

Thursday, January 3, 2013

  Actual Average Record
Temperature  
Mean Temperature 52 °F -  
Max Temperature 68 °F 66 °F 82 °F (2001)
Min Temperature 37 °F 49 °F 37 °F (2013)
Degree Days  
Heating Degree Days 12    
Growing Degree Days 2 (Base 50)    
Moisture  
Dew Point 36 °F    
Average Humidity 62    
Maximum Humidity 87    
Minimum Humidity 17    
Precipitation  
Precipitation 0.00 in - - ()
Sea Level Pressure  
Sea Level Pressure 30.11 in    
Wind  
Wind Speed 4 mph (NE)    
Max Wind Speed 10 mph    
Max Gust Speed -    
Visibility 10 miles    
Events      
Averages and records for this station are not official NWS values.
T = Trace of Precipitation, MM = Missing Value Source: NWS Daily Summary

Daily Weather History Graph

Daily Weather History Graph

Search for Another Location

Airport or City:

Trip Planner

Search our weather history database for the weather conditions in past years. The results will help you decide how hot, cold, wet, or windy it might be!

Date:

Astronomy

Jan. 03, 2013 Rise Set
Actual Time 6:57 AM PST 4:56 PM PST
Civil Twilight 6:30 AM PST 5:23 PM PST
Nautical Twilight 5:59 AM PST 5:55 PM PST
Astronomical Twilight 5:28 AM PST 6:25 PM PST
Moon 11:16 PM PST (1/3) 10:30 AM PST (1/3)
Length of Visible Light 10h 53m
Length of Day
9h 58m
Waning Gibbous, 64% of the Moon is Illuminated
Jan 3
Waning Gibbous
Jan 4
Last Quarter
Jan 11
New
Jan 18
First Quarter
Jan 26
Full

Hourly Weather History & Observations

Time (PST) Temp. Windchill Dew Point Humidity Pressure Visibility Wind Dir Wind Speed Gust Speed Precip Events Conditions
12:58 AM 41.2 °F 39.2 °F 34.7 °F 78% 30.07 in 10.0 mi ENE 3.5 mph - N/A   Clear
1:58 AM 38.3 °F - 34.0 °F 84% 30.08 in 10.0 mi NNE 2.3 mph - N/A   Clear
2:58 AM 37.4 °F - 32.7 °F 83% 30.07 in 10.0 mi NNE 1.2 mph - N/A   Clear
3:58 AM 37.0 °F - 33.4 °F 87% 30.07 in 10.0 mi North 2.3 mph - N/A   Clear
4:58 AM 38.3 °F - 32.5 °F 80% 30.07 in 10.0 mi NNE 2.3 mph - N/A   Clear
5:58 AM 37.4 °F - 31.6 °F 80% 30.08 in 10.0 mi West 2.3 mph - N/A   Clear
6:58 AM 37.0 °F 34.5 °F 31.5 °F 80% 30.10 in 10.0 mi West 3.5 mph - N/A   Clear
7:58 AM 38.5 °F - 32.7 °F 80% 30.12 in 10.0 mi NE 2.3 mph - N/A   Clear
8:58 AM 48.4 °F - 35.2 °F 60% 30.14 in 10.0 mi North 2.3 mph - N/A   Clear
9:58 AM 57.7 °F - 33.8 °F 41% 30.15 in 10.0 mi North 5.8 mph - N/A   Clear
10:58 AM 67.8 °F - 20.5 °F 17% 30.13 in 10.0 mi ENE 5.8 mph - N/A   Clear
11:58 AM 66.2 °F - 43.2 °F 43% 30.10 in 10.0 mi South 10.4 mph - N/A   Clear
12:58 PM 65.5 °F - 37.6 °F 36% 30.09 in 10.0 mi SSW 8.1 mph - N/A   Clear
1:58 PM 66.9 °F - 40.3 °F 38% 30.08 in 10.0 mi SW 6.9 mph - N/A   Clear
2:58 PM 68.4 °F - 32.7 °F 27% 30.09 in 10.0 mi SW 5.8 mph - N/A   Clear
3:58 PM 64.9 °F - 32.2 °F 29% 30.10 in 10.0 mi SW 8.1 mph - N/A   Clear
4:58 PM 59.9 °F - 36.5 °F 42% 30.10 in 10.0 mi SSE 3.5 mph - N/A   Clear
5:58 PM 55.4 °F - 41.4 °F 59% 30.12 in 10.0 mi SE 3.5 mph - N/A   Clear
6:58 PM 53.8 °F - 42.8 °F 66% 30.13 in 10.0 mi East 3.5 mph - N/A   Clear
7:58 PM 48.2 °F - 42.6 °F 81% 30.15 in 10.0 mi ENE 5.8 mph - N/A   Clear
8:58 PM 48.9 °F - 41.7 °F 76% 30.16 in 10.0 mi East 3.5 mph - N/A   Clear
9:58 PM 46.8 °F - 41.0 °F 80% 30.17 in 10.0 mi Calm Calm - N/A   Clear
10:58 PM 44.8 °F - 37.9 °F 77% 30.18 in 10.0 mi NNE 2.3 mph - N/A   Clear
11:58 PM 43.0 °F 41.3 °F 35.4 °F 75% 30.19 in 10.0 mi NE 3.5 mph - N/A   Clear